Temperature
22 22 21 21 20 20 21 23 25 25 25 26 25 25 24 24 23 21 21 21 22 21 21 21 21 20 20 20 20 20 20 20 20 19 19 19 19 19 19 19 19 19 19 19 19 18 18 18 18
22 22 21 20 20 20 22 24 25 26 26 25 25 25 24 23 21 21 21 22 22 22 21 21 21 20 20 20 20 20 20 20 20 19 19 19 19 19 19 19 19 19 19 19 19 18 18 18 18
22 22 21 19 20 21 24 25 26 27 27 26 24 24 23 22 21 21 21 22 22 22 21 21 21 20 20 20 20 20 20 19 19 19 19 19 19 19 19 19 19 19 19 19 19 18 18 18 18
22 22 21 20 22 24 26 26 27 27 26 25 24 22 23 23 22 22 21 22 22 21 21 21 21 20 20 20 20 20 19 19 19 19 19 19 19 19 19 19 19 19 19 19 19 18 18 18 18
22 22 20 21 22 25 27 28 28 27 26 24 23 22 22 23 23 22 21 22 22 21 21 21 20 20 20 20 20 20 19 19 19 19 19 19 19 19 19 19 19 19 19 19 19 18 18 18 18
23 21 20 21 24 27 28 28 27 26 25 24 23 22 21 22 22 21 21 22 22 22 21 20 20 20 20 20 20 20 19 19 19 19 19 19 19 19 19 19 19 19 19 19 19 18 18 18 18
23 21 21 23 25 27 28 28 27 26 25 24 23 21 21 20 21 21 21 21 21 21 21 20 20 20 20 20 20 20 19 19 19 19 19 19 19 19 19 19 19 19 19 19 19 18 18 18 18
24 21 22 23 25 27 28 28 27 26 25 24 24 21 21 21 21 21 21 21 21 21 21 20 20 20 20 20 20 19 19 19 19 19 19 19 19 19 19 19 19 19 19 19 19 18 18 18 18
25 22 22 24 26 27 28 27 27 26 25 24 23 23 22 21 21 20 20 20 20 20 20 20 20 20 20 20 19 19 19 19 19 19 19 18 18 18 18 18 18 18 18 18 19 18 18 18 18
25 21 23 26 27 27 28 28 27 25 23 23 22 22 22 21 20 20 20 20 20 20 20 20 20 20 20 20 19 19 19 19 19 19 18 18 18 18 18 18 18 18 18 18 18 18 18 18 18
25 24 26 27 28 29 28 28 27 24 23 22 22 21 21 21 20 20 20 20 20 20 20 20 20 20 20 19 19 19 19 19 19 18 18 18 18 18 18 18 18 18 18 18 18 18 18 18 18
26 26 28 28 29 29 28 27 25 25 24 24 23 22 21 21 20 20 20 20 20 20 20 20 20 20 19 19 19 19 19 19 18 18 18 18 18 18 18 18 18 18 18 18 18 18 18 18 18
26 27 28 29 29 28 28 26 25 24 24 24 23 22 21 21 20 20 20 20 20 20 19 19 19 19 19 19 19 19 19 19 18 18 18 18 18 18 18 18 18 17 17 17 17 17 17 17 17
27 27 28 28 28 28 26 25 24 23 23 23 22 22 21 21 20 20 20 20 19 19 19 19 19 19 19 19 19 19 19 18 18 18 18 18 18 18 18 18 17 17 17 17 17 17 17 17 17
28 26 26 26 27 27 26 25 24 24 23 22 21 21 21 21 21 20 20 20 19 19 19 19 19 19 19 19 19 19 18 18 18 18 18 18 18 18 18 18 17 17 17 17 17 17 17 17 17
25 25 24 25 26 27 25 24 24 24 22 21 21 21 21 21 21 20 20 19 19 19 19 19 18 19 19 19 18 18 18 18 18 18 18 18 18 18 17 17 17 17 17 17 17 17 17 17 17
23 23 24 25 26 26 25 24 24 23 22 21 21 21 21 20 20 20 20 19 19 19 19 19 18 18 19 19 18 18 18 18 18 18 18 18 18 18 17 17 17 17 17 17 16 16 17 16 16
23 23 25 25 26 26 24 23 23 22 22 21 21 21 20 20 20 20 20 19 19 19 19 19 18 19 19 18 18 18 18 18 18 18 18 18 18 17 17 17 17 17 17 16 16 16 16 16 16
25 25 25 26 27 26 24 23 23 22 22 21 21 20 20 20 20 20 19 19 19 18 18 18 18 18 19 18 18 18 18 18 18 18 18 18 17 17 17 17 17 16 16 16 16 16 16 16 16
26 25 25 26 27 25 23 23 22 22 21 21 21 20 20 20 19 19 19 19 19 18 18 18 18 18 18 18 18 18 18 18 18 18 17 17 17 17 17 16 16 16 16 16 16 16 16 16 16
26 26 26 26 26 24 23 21 21 21 21 21 21 21 20 20 19 19 19 18 18 18 18 18 18 18 18 18 18 18 18 18 17 17 17 17 17 17 17 16 16 16 16 16 16 16 16 16 16
25 27 27 26 24 21 22 20 20 20 20 20 20 20 20 19 19 19 19 18 18 18 18 18 18 18 18 18 18 18 18 18 18 18 17 17 17 17 16 16 16 16 16 16 16 15 15 16 16
26 27 26 25 22 20 20 20 20 19 19 20 20 20 20 20 19 19 19 19 18 18 18 18 18 18 18 18 18 18 18 18 18 17 17 17 17 16 16 16 16 16 16 15 15 15 15 15 15
27 25 23 20 19 20 20 20 19 19 19 20 20 20 20 20 19 19 19 18 18 18 18 18 18 18 18 18 18 18 18 18 17 17 17 17 16 16 16 16 16 16 15 15 15 15 15 15 15
26 23 21 21 19 19 19 19 19 20 21 20 20 20 20 20 19 19 19 18 18 18 18 18 18 18 18 18 18 18 18 18 17 17 17 17 16 16 16 16 16 16 15 15 15 15 15 15 15
24 23 21 21 20 19 19 19 19 21 21 21 21 21 20 20 19 19 19 19 18 18 18 18 18 18 18 18 18 18 18 17 17 17 17 17 17 17 16 16 16 16 15 15 15 15 15 15 15
24 23 21 20 20 19 18 19 19 21 21 21 21 20 20 20 20 19 19 19 19 19 18 18 18 18 18 18 18 18 17 17 17 17 17 17 17 17 16 16 16 16 15 15 15 15 15 15 15
25 23 20 20 20 20 19 19 18 20 21 20 20 20 20 20 20 20 19 19 19 19 19 18 18 18 18 18 18 18 17 17 17 17 17 17 17 17 16 16 16 16 15 15 15 15 15 15 15
24 23 20 18 19 19 19 19 21 20 20 20 20 21 20 20 20 20 20 20 19 19 19 19 18 18 18 18 18 18 17 17 17 17 17 17 17 17 16 16 16 16 16 15 15 15 15 15 15
24 22 20 20 19 18 18 20 22 21 20 20 21 21 21 21 21 21 21 20 20 19 19 19 19 19 18 18 18 18 18 17 17 17 17 17 17 17 17 16 16 16 16 16 16 15 15 15 15
Wind_Speed
8 6 3 1 2 2 3 4 4 2 1 4 9 9 8 5 3 5 7 17 21 19 20 23 24 23 22 22 21 20 20 20 19 19 18 18 18 17 17 17 16 16 16 15 15 14 14 14 14
4 4 2 2 3 1 5 3 4 3 7 9 9 9 8 7 7 8 9 18 22 19 20 22 25 24 23 22 21 20 20 19 19 18 18 18 17 17 17 16 16 16 15 15 14 14 13 13 13
3 3 2 2 2 4 4 3 4 5 8 9 6 5 5 5 7 5 12 21 19 17 19 23 25 24 23 22 21 20 20 19 19 18 17 17 17 17 16 16 16 15 15 14 14 13 12 12 11
2 2 2 1 5 7 6 5 5 7 8 9 9 6 3 3 6 11 20 20 19 15 19 23 25 24 24 22 21 20 20 19 18 18 17 17 16 16 16 15 15 15 14 13 12 12 11 10 9
2 3 2 2 6 5 4 7 6 8 5 7 9 7 3 3 14 21 20 19 19 16 17 22 25 24 24 22 21 21 20 19 18 18 17 17 16 16 15 15 14 14 13 12 11 10 9 8 8
2 2 1 4 5 5 3 4 8 11 9 9 9 8 3 6 17 19 18 17 18 18 16 21 24 24 23 22 22 21 20 19 18 18 17 17 16 15 15 14 14 13 13 11 10 9 8 7 6
3 1 3 5 6 4 3 4 8 9 9 7 9 7 5 8 13 16 17 16 16 16 15 15 20 22 23 23 22 21 20 19 18 18 17 16 16 15 14 14 13 12 12 11 10 8 6 5 5
5 1 4 3 3 2 1 4 6 9 8 9 7 9 8 11 14 15 15 15 15 14 13 12 15 17 18 19 21 20 20 19 18 17 17 16 15 14 14 13 12 12 11 10 9 7 5 3 2
2 1 4 4 3 2 1 5 4 6 9 5 3 5 10 17 18 17 15 13 14 15 12 12 11 13 15 16 19 19 19 18 17 16 16 15 13 13 13 12 12 11 10 9 8 6 4 2 1
5 4 8 6 4 3 1 5 6 5 7 6 7 8 13 16 18 18 18 18 17 16 14 13 12 12 14 15 15 14 14 15 14 13 14 12 12 12 11 12 12 11 10 8 7 5 4 2 1
6 7 9 8 6 3 2 2 4 9 5 8 13 16 16 16 16 16 15 16 16 16 15 14 13 12 11 9 12 10 10 11 11 12 13 11 10 9 9 9 9 9 8 6 5 4 3 2 1
5 9 9 8 4 1 2 3 5 5 7 12 17 18 15 16 16 16 16 14 13 14 14 13 13 11 10 10 9 9 8 8 8 11 12 10 7 6 7 7 7 6 6 5 4 3 3 2 2
6 8 7 6 2 2 4 4 5 4 9 13 15 15 14 14 13 12 14 14 13 13 13 13 12 12 10 8 7 8 7 8 9 10 12 12 7 5 6 5 6 6 6 6 4 3 2 1 1
5 5 6 5 2 1 5 3 6 4 10 13 13 12 12 13 12 10 12 13 13 13 13 13 12 11 10 8 7 6 7 9 9 9 11 13 10 7 5 4 4 5 6 6 5 3 2 1 1
4 5 7 5 2 1 4 1 4 9 12 12 12 11 11 11 11 11 13 12 13 13 12 12 12 11 11 10 8 7 8 9 7 8 11 12 11 10 7 4 3 4 6 6 4 3 2 1 1
5 4 4 8 2 2 6 5 6 11 13 11 11 11 10 9 10 10 11 11 11 11 12 13 13 11 11 9 7 7 9 9 8 10 10 11 11 11 8 4 3 5 6 5 3 3 2 2 1
4 3 6 8 4 3 5 6 5 10 11 10 10 10 9 8 8 9 11 11 11 12 13 13 12 12 11 9 7 7 8 7 8 9 9 10 11 12 9 5 4 7 5 3 3 3 2 1 0
7 6 7 8 5 5 5 5 5 9 10 10 9 9 9 9 8 8 9 11 11 11 11 12 11 11 10 9 7 6 6 5 6 7 8 10 10 11 9 6 5 6 4 3 3 3 2 1 0
10 10 11 10 4 4 6 6 7 8 8 8 8 8 9 8 7 7 9 11 12 11 11 11 11 10 9 8 7 7 6 5 5 5 9 10 10 10 8 5 5 4 4 4 3 2 2 2 1
12 11 9 7 1 3 3 4 5 7 10 9 9 9 9 8 7 7 8 9 10 12 12 12 12 10 9 8 6 5 6 5 5 4 6 9 10 10 8 6 5 4 4 4 3 3 2 2 2
12 8 7 6 1 5 5 2 2 2 3 6 8 8 8 10 11 10 9 10 11 11 12 13 12 11 9 9 7 6 5 4 3 4 4 5 9 9 9 8 6 4 4 4 3 3 4 2 2
10 9 5 2 4 3 3 1 5 3 2 4 6 7 8 8 9 9 10 11 12 13 12 11 11 10 9 9 9 10 7 6 6 5 5 4 7 9 10 9 7 5 4 4 3 3 3 3 2
9 6 0 2 5 4 4 2 5 1 4 7 8 10 10 10 10 11 11 12 12 12 13 12 12 11 10 9 10 10 7 5 5 5 6 5 4 7 9 9 7 5 4 4 4 4 3 3 3
5 2 6 6 5 3 2 2 5 4 6 6 8 10 11 11 10 10 10 10 9 10 11 12 11 10 10 10 10 10 10 8 8 7 7 5 4 4 6 8 7 6 5 5 4 4 4 3 3
2 4 4 5 5 3 2 2 8 9 7 8 10 11 11 11 11 11 11 11 11 12 12 12 12 11 10 10 10 10 10 10 11 9 8 7 5 4 5 5 6 5 5 5 4 4 3 3 3
4 8 7 5 5 3 2 4 8 10 8 6 8 10 11 12 12 12 13 13 13 14 13 12 12 11 10 10 10 9 9 8 8 9 8 8 6 6 7 7 6 6 7 6 4 3 3 3 3
4 3 7 7 3 1 3 6 9 7 5 3 7 11 13 14 14 14 13 13 13 13 13 13 13 10 10 10 9 8 9 8 9 8 8 6 6 6 8 7 7 6 6 6 5 3 3 4 3
6 6 5 6 4 2 3 4 5 7 6 4 5 10 12 13 13 14 14 13 12 12 12 12 12 11 10 10 9 9 8 9 9 8 8 8 8 7 9 8 8 7 6 6 5 4 4 4 3
1 3 5 5 5 6 4 6 7 10 9 7 8 10 12 14 15 14 14 13 13 12 13 12 12 11 11 11 9 8 8 8 8 8 8 8 8 9 9 9 9 8 7 7 6 5 5 5 4
6 6 7 5 4 5 5 7 6 9 8 8 8 9 11 14 14 14 14 13 12 13 13 14 13 13 12 11 10 9 9 8 8 8 9 9 9 9 10 9 9 9 8 7 8 7 6 6 6
Wind_Direction
190 192 176 80 53 28 271 242 208 214 106 81 96 106 102 89 133 153 138 139 138 144 148 144 141 138 135 132 129 127 125 122 120 118 117 116 115 114 115 114 113 112 110 109 108 107 105 105 105
186 188 149 56 81 323 273 245 213 180 134 113 90 92 84 66 76 107 126 140 140 143 146 145 142 140 137 136 134 132 130 128 126 124 122 121 120 118 117 116 114 113 112 111 110 109 108 106 104
202 187 134 103 167 208 250 229 196 129 121 111 99 72 86 108 110 119 140 140 138 142 146 147 145 142 141 140 139 137 135 133 131 130 127 126 125 123 121 119 118 116 115 113 112 111 109 107 105
167 93 66 97 243 241 228 214 175 121 93 87 104 85 73 106 127 133 139 141 139 142 146 148 146 145 144 143 143 141 140 138 137 135 132 131 130 128 126 124 122 121 119 118 116 114 111 107 103
113 100 63 283 259 265 228 187 149 108 107 102 103 105 74 35 119 132 142 144 142 142 146 148 148 147 147 147 146 145 145 144 142 140 137 135 134 132 130 129 127 125 124 123 122 119 115 109 97
57 91 93 268 266 267 261 156 116 103 112 110 105 116 116 122 127 140 146 146 145 144 145 149 150 150 150 150 149 149 149 148 146 144 142 141 139 137 136 135 135 133 131 129 127 126 123 113 96
152 137 228 251 283 286 195 138 115 120 126 132 133 123 130 142 141 143 144 143 144 144 145 148 152 152 153 153 152 152 152 152 151 149 147 146 145 144 143 143 143 141 139 138 136 135 132 120 98
174 120 287 280 291 317 139 99 110 117 119 130 132 137 159 162 148 138 139 142 143 145 147 148 151 152 153 155 155 156 156 156 156 155 154 153 153 153 151 151 150 149 149 149 147 147 145 135 99
174 85 262 249 242 274 108 97 87 92 111 111 113 140 152 147 144 140 141 144 149 152 152 151 152 154 153 155 159 160 160 161 160 160 161 159 158 159 160 160 160 160 161 161 160 161 167 180 244
156 191 238 229 221 201 131 112 126 107 104 101 96 110 135 142 146 150 156 160 160 161 161 160 158 159 159 162 158 162 162 164 165 166 165 165 166 169 171 173 172 172 172 171 173 180 193 208 276
194 216 250 262 251 186 128 96 99 127 130 153 147 147 151 148 150 154 158 162 164 163 165 166 165 166 167 160 159 163 164 166 170 173 174 172 174 179 174 173 176 178 178 175 179 180 191 180 196
240 259 261 264 261 168 144 120 90 132 170 161 152 152 154 152 157 157 155 160 164 165 169 168 168 170 168 161 164 166 166 172 176 182 180 170 163 162 164 168 174 177 178 174 170 167 167 152 147
259 264 278 274 276 132 99 101 114 135 141 144 144 146 152 154 156 155 155 160 162 168 170 169 169 169 163 157 167 167 168 172 174 170 169 163 157 157 161 167 171 177 175 169 166 164 159 141 128
265 289 297 296 291 163 121 111 109 171 147 146 147 151 155 158 159 150 152 159 163 167 166 162 163 163 157 158 160 160 165 164 158 153 156 154 153 154 150 149 156 162 166 165 160 157 148 146 142
304 319 321 302 266 183 108 8 177 172 153 152 158 161 160 165 165 162 164 164 167 167 162 157 160 159 156 155 157 155 154 149 147 148 149 151 150 148 144 138 140 151 150 135 116 105 101 102 120
341 346 298 285 251 195 129 236 212 164 156 158 163 166 168 172 171 166 166 162 165 162 158 159 159 158 153 148 145 147 147 146 150 149 148 147 144 144 137 131 135 137 128 120 112 95 83 67 74
342 276 266 281 252 191 154 220 206 164 161 164 168 167 167 173 172 168 166 161 162 161 158 159 156 161 152 146 143 141 142 144 150 148 144 143 140 142 138 132 130 123 112 112 119 97 108 91 353
262 265 272 267 245 185 195 217 179 170 167 175 173 164 163 176 182 174 165 163 162 159 157 159 160 159 149 142 134 129 131 140 145 145 146 143 138 140 135 130 128 121 110 104 100 99 84 99 272
253 268 276 277 238 171 198 204 186 172 170 175 173 170 174 178 177 163 164 164 160 158 158 156 159 161 152 146 145 144 148 152 150 154 151 144 141 141 136 133 130 125 124 129 119 101 71 29 28
262 269 277 291 267 144 169 185 189 184 187 179 174 180 177 164 162 167 171 169 165 165 159 156 161 166 160 154 153 151 146 151 153 149 149 149 147 147 143 137 140 137 125 112 98 92 89 23 48
270 254 240 241 35 56 96 13 262 233 192 176 176 178 174 173 171 174 175 173 169 171 170 167 168 168 162 153 143 131 113 107 124 145 156 161 152 147 143 147 143 140 135 136 126 115 116 86 20
269 264 234 189 98 23 58 208 279 261 259 208 186 174 179 176 174 177 180 178 179 180 174 164 165 167 163 156 152 152 154 160 175 168 168 164 154 152 151 151 144 140 136 141 142 125 122 114 69
252 255 159 105 115 83 25 108 291 308 244 229 200 186 186 182 181 183 184 182 182 178 173 167 167 168 167 163 161 159 158 166 158 153 158 161 156 158 155 151 144 142 142 145 136 124 117 119 123
244 35 48 52 71 63 267 156 264 231 229 229 204 194 189 183 183 184 181 173 174 172 170 165 168 171 171 166 165 165 166 166 160 164 168 168 162 157 155 151 148 148 147 150 151 146 135 132 125
293 86 26 353 7 263 245 205 248 248 244 223 211 199 193 184 181 179 175 174 174 175 174 171 172 178 178 172 174 173 172 170 173 172 174 171 167 170 173 156 156 155 157 158 150 145 147 147 142
232 147 163 207 229 262 316 261 261 271 274 241 207 189 186 184 183 181 180 177 176 177 177 176 177 178 180 178 179 177 171 172 177 176 174 179 179 179 173 166 166 165 160 159 150 149 163 155 155
202 197 170 143 144 118 267 286 299 290 292 230 189 177 184 186 182 181 181 180 179 179 180 178 176 175 182 180 174 173 172 170 173 174 172 175 179 179 171 168 169 169 164 159 152 162 174 161 167
175 157 103 121 149 198 236 245 244 267 262 233 192 188 187 183 180 180 181 182 183 182 178 175 174 179 182 178 177 178 174 173 172 169 175 177 178 174 169 171 171 170 168 165 159 166 176 169 181
197 119 122 129 153 159 211 254 226 221 222 211 205 198 190 186 183 182 182 182 180 178 177 177 178 176 177 178 179 175 176 175 169 173 179 180 178 174 173 174 173 174 177 175 172 181 182 186 197
172 168 147 153 207 173 174 251 256 211 211 202 206 200 194 190 184 183 181 178 177 178 179 181 182 183 184 181 179 181 180 179 179 181 183 180 177 178 177 175 176 182 185 183 182 191 189 191 201
Height
1514 1514 1514 1514 1517 1523 1522 1509 1501 1496 1495 1495 1495 1498 1501 1504 1508 1515 1512 1514 1519 1523 1527 1531 1533 1535 1537 1538 1540 1541 1542 1543 1544 1545 1546 1547 1548 1549 1550 1551 1552 1553 1553 1554 1555 1556 1556 1557 1558
1513 1514 1515 1515 1521 1532 1521 1503 1499 1494 1494 1495 1496 1499 1500 1505 1506 1508 1510 1515 1519 1523 1527 1531 1533 1535 1537 1539 1541 1542 1543 1544 1545 1546 1547 1548 1549 1550 1551 1552 1553 1554 1555 1555 1556 1557 1558 1559 1560
1513 1513 1515 1516 1521 1524 1514 1499 1494 1491 1492 1492 1497 1500 1502 1506 1507 1509 1511 1516 1520 1524 1527 1531 1534 1536 1538 1540 1541 1543 1544 1545 1546 1547 1548 1549 1551 1552 1552 1553 1554 1555 1556 1557 1558 1559 1560 1561 1562
1513 1514 1515 1519 1519 1507 1499 1493 1489 1490 1493 1493 1496 1501 1504 1507 1507 1509 1513 1516 1520 1524 1528 1531 1533 1536 1538 1540 1541 1543 1544 1546 1547 1548 1549 1550 1552 1553 1554 1555 1555 1556 1557 1558 1559 1560 1562 1563 1564
1512 1512 1517 1520 1512 1499 1490 1488 1487 1489 1493 1496 1496 1502 1505 1506 1507 1510 1514 1517 1520 1523 1528 1531 1534 1536 1538 1540 1542 1543 1545 1546 1547 1549 1550 1551 1553 1554 1555 1556 1557 1558 1559 1560 1561 1562 1563 1564 1565
1512 1512 1522 1522 1507 1493 1488 1486 1487 1490 1494 1496 1498 1502 1507 1508 1508 1511 1515 1518 1521 1523 1527 1530 1533 1536 1538 1540 1542 1543 1545 1547 1548 1549 1551 1552 1553 1555 1556 1557 1558 1559 1560 1561 1562 1563 1564 1566 1567
1511 1513 1518 1513 1504 1494 1487 1486 1486 1490 1493 1495 1496 1501 1506 1509 1510 1512 1515 1518 1521 1524 1527 1530 1533 1535 1538 1540 1542 1544 1545 1547 1548 1550 1551 1553 1554 1555 1556 1558 1559 1560 1561 1562 1563 1564 1566 1567 1568
1507 1510 1512 1509 1502 1494 1486 1485 1487 1488 1492 1495 1495 1497 1503 1506 1509 1512 1516 1518 1521 1523 1526 1529 1532 1535 1537 1540 1542 1544 1546 1547 1549 1550 1552 1553 1554 1556 1557 1558 1560 1561 1562 1563 1564 1565 1567 1568 1569
1506 1513 1515 1506 1499 1492 1485 1485 1488 1488 1490 1493 1494 1495 1498 1503 1507 1511 1514 1517 1520 1523 1525 1528 1531 1535 1537 1539 1541 1544 1546 1547 1549 1550 1552 1553 1555 1556 1557 1559 1560 1561 1562 1563 1565 1566 1567 1568 1569
1502 1512 1503 1492 1489 1487 1484 1484 1487 1490 1491 1493 1495 1497 1500 1503 1505 1508 1510 1514 1517 1519 1523 1527 1530 1533 1537 1539 1541 1543 1545 1547 1549 1550 1552 1553 1555 1556 1557 1559 1560 1561 1562 1563 1565 1566 1567 1568 1569
1497 1499 1490 1487 1485 1484 1484 1484 1486 1488 1492 1492 1492 1495 1498 1502 1504 1506 1508 1510 1514 1517 1521 1525 1529 1532 1535 1538 1540 1542 1545 1547 1549 1550 1552 1553 1554 1556 1557 1558 1560 1561 1562 1563 1564 1565 1566 1567 1569
1494 1490 1487 1484 1482 1482 1482 1483 1486 1486 1488 1489 1489 1492 1496 1499 1501 1502 1505 1509 1512 1516 1519 1524 1527 1530 1534 1537 1539 1542 1544 1546 1548 1550 1551 1552 1554 1555 1557 1558 1559 1561 1562 1563 1564 1565 1566 1567 1568
1490 1487 1484 1482 1481 1481 1481 1483 1485 1487 1487 1489 1491 1493 1495 1497 1500 1502 1504 1508 1511 1514 1518 1522 1525 1529 1532 1535 1538 1541 1543 1545 1548 1549 1550 1552 1553 1555 1556 1557 1559 1560 1561 1562 1563 1564 1566 1567 1567
1487 1485 1482 1480 1480 1480 1481 1484 1486 1489 1488 1490 1491 1493 1495 1496 1499 1501 1503 1507 1509 1512 1516 1520 1523 1527 1531 1534 1537 1540 1543 1545 1547 1549 1550 1551 1553 1554 1555 1557 1558 1559 1560 1561 1563 1564 1564 1565 1566
1486 1485 1482 1478 1477 1479 1480 1486 1484 1485 1488 1489 1491 1493 1495 1497 1499 1500 1501 1504 1507 1510 1514 1517 1521 1525 1529 1533 1536 1539 1542 1544 1546 1548 1549 1551 1552 1553 1555 1556 1557 1558 1559 1560 1562 1562 1563 1564 1565
1486 1490 1494 1481 1476 1476 1484 1493 1483 1485 1486 1488 1490 1493 1494 1496 1498 1499 1501 1502 1505 1508 1511 1516 1520 1523 1528 1531 1534 1537 1540 1543 1545 1547 1548 1550 1551 1553 1554 1555 1556 1557 1558 1560 1561 1561 1562 1563 1563
1495 1501 1497 1485 1475 1476 1482 1488 1481 1484 1485 1488 1489 1491 1493 1494 1496 1498 1500 1501 1504 1506 1509 1513 1518 1522 1526 1530 1533 1536 1539 1542 1544 1546 1547 1548 1550 1552 1553 1554 1555 1557 1558 1559 1560 1560 1561 1562 1562
1504 1500 1494 1487 1475 1476 1481 1483 1481 1483 1485 1487 1489 1490 1491 1492 1494 1496 1498 1500 1502 1505 1508 1512 1516 1520 1524 1528 1532 1535 1538 1541 1543 1544 1546 1547 1549 1550 1552 1553 1555 1556 1557 1558 1559 1559 1560 1560 1561
1490 1492 1491 1481 1470 1475 1480 1482 1481 1482 1484 1486 1487 1489 1490 1492 1494 1495 1496 1498 1501 1503 1506 1509 1513 1517 1521 1525 1528 1532 1535 1538 1541 1543 1545 1546 1548 1549 1551 1552 1554 1555 1556 1557 1557 1558 1559 1559 1560
1485 1489 1487 1478 1470 1475 1483 1485 1482 1481 1481 1483 1485 1487 1488 1490 1493 1494 1495 1497 1498 1501 1504 1508 1510 1515 1519 1523 1527 1531 1534 1537 1540 1542 1544 1545 1547 1548 1550 1552 1553 1554 1555 1556 1556 1557 1558 1558 1559
1481 1484 1482 1480 1475 1477 1484 1493 1487 1482 1482 1483 1484 1486 1488 1489 1490 1491 1493 1495 1497 1500 1503 1506 1508 1513 1517 1521 1525 1529 1532 1535 1538 1540 1542 1544 1546 1547 1549 1551 1552 1553 1554 1555 1556 1556 1557 1558 1559
1484 1470 1470 1473 1485 1497 1493 1508 1494 1487 1485 1483 1484 1486 1487 1488 1489 1491 1492 1493 1496 1498 1501 1505 1508 1511 1515 1519 1522 1525 1528 1532 1535 1538 1541 1543 1545 1546 1548 1550 1551 1552 1553 1554 1555 1556 1557 1557 1558
1471 1465 1468 1474 1486 1500 1500 1506 1500 1488 1488 1483 1482 1483 1485 1486 1488 1489 1491 1492 1494 1497 1500 1503 1506 1510 1514 1517 1520 1524 1527 1531 1534 1537 1539 1541 1544 1546 1547 1549 1550 1551 1552 1553 1554 1555 1556 1557 1557
1462 1467 1475 1485 1495 1510 1505 1507 1504 1490 1484 1480 1479 1480 1482 1484 1485 1488 1489 1491 1493 1496 1499 1501 1504 1507 1512 1516 1519 1522 1525 1529 1532 1535 1537 1540 1542 1544 1546 1548 1549 1550 1551 1552 1553 1554 1555 1556 1557
1463 1482 1503 1507 1516 1515 1503 1503 1499 1478 1474 1473 1474 1476 1479 1481 1483 1485 1487 1489 1491 1494 1497 1500 1503 1506 1510 1514 1517 1520 1524 1527 1530 1533 1535 1538 1540 1542 1544 1546 1547 1549 1550 1551 1552 1553 1553 1554 1556
1466 1477 1504 1515 1519 1514 1505 1505 1488 1471 1469 1468 1470 1473 1476 1479 1481 1482 1484 1487 1490 1492 1495 1498 1501 1505 1508 1512 1515 1519 1522 1525 1528 1531 1534 1536 1539 1541 1543 1544 1546 1547 1548 1549 1550 1551 1552 1553 1554
1465 1473 1475 1495 1504 1515 1510 1499 1482 1468 1466 1466 1467 1470 1473 1476 1478 1481 1483 1486 1488 1491 1493 1496 1500 1503 1507 1510 1513 1517 1520 1523 1526 1529 1532 1535 1537 1539 1541 1543 1544 1546 1547 1548 1549 1550 1551 1552 1553
1454 1463 1480 1494 1510 1516 1511 1503 1494 1475 1468 1466 1467 1468 1470 1473 1476 1479 1482 1484 1487 1489 1492 1495 1499 1502 1505 1508 1512 1515 1518 1522 1524 1527 1530 1532 1535 1537 1539 1540 1542 1544 1545 1546 1547 1548 1550 1550 1551
1458 1465 1475 1489 1494 1510 1516 1502 1470 1467 1465 1465 1465 1466 1468 1470 1473 1476 1479 1482 1485 1488 1491 1494 1497 1500 1503 1506 1510 1513 1517 1520 1523 1525 1528 1530 1532 1534 1536 1538 1540 1541 1543 1544 1545 1546 1548 1549 1549
1451 1461 1473 1488 1493 1495 1502 1493 1458 1458 1459 1461 1462 1463 1466 1468 1470 1474 1477 1480 1484 1487 1489 1492 1495 1498 1501 1504 1508 1511 1514 1517 1520 1523 1525 1528 1530 1531 1533 1535 1537 1539 1540 1542 1543 1544 1545 1546 1547